Date String (YYYY-MM-DD hh:mm:ss) UTC,Instrument flags,absolute air pressure of the measurement (hPa),sample flow rate (lpm),inlet stack bypass flow (lpm),air temperature of the measurement (°C),ambient temperature measured by the external sensor (°C),aerosol sample conditioner tube jacket temperature (°C),OPC LED temperature (°C),internal box temperature (°C),relative humidity of the measurement (%),span deviation,mass concentration of particles derived from Lorenz-Mie calculation of OPC scattering (μg/m³),mass concentration of particles derived from Lorenz-Mie calculation of OPC scattering (μg/m³),mass concentration of particles derived from Lorenz-Mie calculation of OPC scattering (μg/m³)
DateTimeUTC,F1_M11,P_M11,Q1_M11,Q2_M11,T1_M11,T2_M11,T3_M11,T4_M11,T5_M11,U1_M11,ZSPAN_M11,X2_M11,X0_M11,X1_M11
2024-06-09 11:00:00,SystemResetWarning,0831.1,5.00,000.00,030.6,029.8,000.0,039.1,032.4,028.1,0000.0,0005.41,0010.97,0004.64
2024-06-09 11:01:00,SystemResetWarning,0831.2,5.00,000.00,030.6,029.8,000.0,039.1,032.3,028.2,0000.0,0005.40,0010.96,0004.63
2024-06-09 11:02:00,SystemResetWarning,0831.3,5.00,000.00,030.6,029.8,000.0,039.1,032.3,028.2,0000.0,0005.41,0010.90,0004.63
2024-06-09 11:03:00,SystemResetWarning,0831.2,5.01,000.00,030.6,029.8,000.0,039.1,032.3,028.1,0000.0,0005.41,0011.08,0004.63
2024-06-09 11:04:00,SystemResetWarning,0831.2,5.00,000.00,030.6,029.8,000.0,039.1,032.3,028.1,0000.0,0005.43,0010.89,0004.63
2024-06-09 11:05:00,SystemResetWarning,0831.2,5.00,000.00,030.6,029.8,000.0,039.1,032.3,028.2,0000.0,0005.43,0010.69,0004.64
2024-06-09 11:06:00,SystemResetWarning,0831.2,5.00,000.00,030.6,029.8,000.0,039.1,032.3,028.1,0000.0,0005.46,0010.88,0004.66
2024-06-09 11:07:00,SystemResetWarning,0831.3,5.00,000.00,030.6,029.8,000.0,039.1,032.4,028.2,0000.0,0005.44,0011.03,0004.68
2024-06-09 11:08:00,SystemResetWarning,0831.3,4.99,000.00,030.6,029.8,000.0,039.1,032.3,028.3,0000.0,0005.47,0011.28,0004.70
2024-06-09 11:09:00,SystemResetWarning,0831.3,4.99,000.00,030.6,029.8,000.0,039.1,032.4,028.3,0000.0,0005.44,0011.23,0004.72
2024-06-09 11:10:00,SystemResetWarning,0831.3,5.01,000.00,030.6,029.8,000.0,039.1,032.4,028.5,0000.0,0005.45,0010.86,0004.74
2024-06-09 11:11:00,SystemResetWarning,0831.3,5.01,000.00,030.6,029.8,000.0,039.1,032.4,028.7,0000.0,0005.47,0010.71,0004.76
2024-06-09 11:12:00,SystemResetWarning,0831.3,5.00,000.00,030.6,029.8,000.0,039.1,032.4,028.8,0000.0,0005.49,0010.76,0004.79
2024-06-09 11:13:00,SystemResetWarning,0831.2,5.00,000.00,030.6,029.8,000.0,039.1,032.4,028.8,0000.0,0005.49,0010.78,0004.81
2024-06-09 11:14:00,SystemResetWarning,0831.3,5.00,000.00,030.6,029.8,000.0,039.1,032.4,028.9,0000.0,0005.52,0010.75,0004.84
2024-06-09 11:15:00,SystemResetWarning,0831.3,4.99,000.00,030.6,029.9,000.0,039.1,032.3,029.0,0000.0,0005.55,0011.25,0004.88
2024-06-09 11:16:00,SystemResetWarning,0831.3,5.00,000.00,030.6,029.9,000.0,039.2,032.3,029.0,0000.0,0005.60,0011.40,0004.92
2024-06-09 11:17:00,SystemResetWarning,0831.3,5.00,000.00,030.6,029.9,000.0,039.1,032.3,029.0,0000.0,0005.62,0011.14,0004.96
2024-06-09 11:18:00,SystemResetWarning,0831.3,5.01,000.00,030.6,029.9,000.0,039.1,032.4,029.0,0000.0,0005.67,0011.00,0005.00
2024-06-09 11:19:00,SystemResetWarning,0831.3,5.01,000.00,030.6,029.9,000.0,039.1,032.4,029.0,0000.0,0005.71,0010.75,0005.04
2024-06-09 11:20:00,SystemResetWarning,0831.3,5.00,000.00,030.6,029.9,000.0,039.1,032.4,028.8,0000.0,0005.72,0010.36,0005.06
2024-06-09 11:21:00,SystemResetWarning,0831.3,5.00,000.00,030.6,029.9,000.0,039.1,032.3,028.7,0000.0,0005.74,0010.22,0005.08
2024-06-09 11:22:00,SystemResetWarning,0831.3,5.00,000.00,030.6,029.8,000.0,039.1,032.3,028.7,0000.0,0005.79,0010.39,0005.10
2024-06-09 11:23:00,SystemResetWarning,0831.3,5.00,000.00,030.6,029.8,000.0,039.1,032.3,028.6,0000.0,0005.79,0010.47,0005.11
2024-06-09 11:24:00,SystemResetWarning,0831.3,5.00,000.00,030.6,029.9,000.0,039.1,032.3,028.6,0000.0,0005.82,0010.34,0005.12
2024-06-09 11:25:00,SystemResetWarning,0831.3,5.00,000.00,030.6,029.8,000.0,039.1,032.3,028.5,0000.0,0005.83,0010.37,0005.13
2024-06-09 11:26:00,SystemResetWarning,0831.3,5.00,000.00,030.6,029.8,000.0,039.1,032.3,028.6,0000.0,0005.81,0009.74,0005.12
2024-06-09 11:27:00,SystemResetWarning,0831.3,5.01,000.00,030.6,029.8,000.0,039.1,032.3,028.7,0000.0,0005.79,0009.68,0005.11
2024-06-09 11:28:00,SystemResetWarning,0831.4,5.00,000.00,030.6,029.8,000.0,039.1,032.3,028.6,0000.0,0005.75,0009.93,0005.09
2024-06-09 11:29:00,SystemResetWarning,0831.4,5.00,000.00,030.6,029.8,000.0,039.1,032.4,028.5,0000.0,0005.76,0010.07,0005.08
2024-06-09 11:30:00,SystemResetWarning,0831.4,5.01,000.00,030.6,029.8,000.0,039.1,032.3,028.4,0000.0,0005.71,0010.12,0005.04
2024-06-09 11:31:00,SystemResetWarning,0831.4,5.00,000.00,030.6,029.8,000.0,039.1,032.3,028.4,0000.0,0005.69,0010.31,0005.01
2024-06-09 11:32:00,SystemResetWarning,0831.5,4.99,000.00,030.6,029.8,000.0,039.1,032.3,028.4,0000.0,0005.68,0010.35,0005.00
2024-06-09 11:33:00,SystemResetWarning,0831.5,5.00,000.00,030.6,029.8,000.0,039.1,032.3,028.5,0000.0,0005.68,0010.36,0004.98
2024-06-09 11:34:00,SystemResetWarning,0831.5,5.00,000.00,030.6,029.8,000.0,039.1,032.3,028.4,0000.0,0005.69,0010.28,0004.97
2024-06-09 11:35:00,SystemResetWarning,0831.6,5.00,000.00,030.6,029.8,000.0,039.1,032.3,028.1,0000.0,0005.67,0010.24,0004.96
2024-06-09 11:36:00,SystemResetWarning,0831.6,4.99,000.00,030.6,029.8,000.0,039.1,032.3,028.1,0000.0,0005.63,0010.63,0004.93
2024-06-09 11:37:00,SystemResetWarning,0831.6,5.00,000.00,030.6,029.8,000.0,039.1,032.3,028.1,0000.0,0005.60,0011.01,0004.91
2024-06-09 11:38:00,SystemResetWarning,0831.6,5.00,000.00,030.6,029.8,000.0,039.1,032.3,028.1,0000.0,0005.58,0011.00,0004.89
2024-06-09 11:39:00,SystemResetWarning,0831.6,4.99,000.00,030.6,029.8,000.0,039.1,032.3,028.1,0000.0,0005.56,0010.59,0004.87
2024-06-09 11:40:00,SystemResetWarning,0831.6,4.99,000.00,030.6,029.8,000.0,039.1,032.3,028.1,0000.0,0005.53,0010.44,0004.85
2024-06-09 11:41:00,SystemResetWarning,0831.5,5.00,000.00,030.6,029.8,000.0,039.1,032.3,028.1,0000.0,0005.52,0010.32,0004.84
2024-06-09 11:42:00,SystemResetWarning,0831.5,5.00,000.00,030.6,029.8,000.0,039.1,032.3,028.1,0000.0,0005.55,0010.30,0004.83
2024-06-09 11:43:00,SystemResetWarning,0831.5,5.01,000.00,030.6,029.8,000.0,039.1,032.3,028.1,0000.0,0005.56,0010.84,0004.80
2024-06-09 11:44:00,SystemResetWarning,0831.5,5.01,000.00,030.6,029.8,000.0,039.1,032.3,028.1,0000.0,0005.52,0010.92,0004.77
2024-06-09 11:45:00,SystemResetWarning,0831.6,5.00,000.00,030.6,029.8,000.0,039.1,032.3,028.2,0000.0,0005.47,0010.85,0004.72
2024-06-09 11:46:00,SystemResetWarning,0831.6,5.00,000.00,030.6,029.8,000.0,039.1,032.3,028.2,0000.0,0005.41,0010.80,0004.68
2024-06-09 11:47:00,SystemResetWarning,0831.6,5.00,000.00,030.6,029.8,000.0,039.1,032.3,028.1,0000.0,0005.40,0010.69,0004.67
2024-06-09 11:48:00,SystemResetWarning,0831.6,4.99,000.00,030.6,029.8,000.0,039.1,032.3,028.1,0000.0,0005.38,0010.79,0004.64
2024-06-09 11:49:00,SystemResetWarning,0831.7,5.00,000.00,030.6,029.8,000.0,039.1,032.3,028.1,0000.0,0005.38,0011.37,0004.60
2024-06-09 11:50:00,SystemResetWarning,0831.7,4.99,000.00,030.6,029.8,000.0,039.1,032.3,028.0,0000.0,0005.37,0011.57,0004.57
2024-06-09 11:51:00,SystemResetWarning,0831.6,5.00,000.00,030.6,029.9,000.0,039.1,032.3,027.8,0000.0,0005.33,0011.51,0004.54
2024-06-09 11:52:00,SystemResetWarning,0831.6,5.00,000.00,030.6,029.9,000.0,039.1,032.3,027.8,0000.0,0005.33,0011.58,0004.52
2024-06-09 11:53:00,SystemResetWarning,0831.6,5.00,000.00,030.6,029.9,000.0,039.1,032.4,027.8,0000.0,0005.30,0011.56,0004.49
2024-06-09 11:54:00,SystemResetWarning,0831.6,4.99,000.00,030.6,029.9,000.0,039.1,032.4,027.8,0000.0,0005.31,0011.21,0004.49
2024-06-09 11:55:00,SystemResetWarning,0831.6,5.00,000.00,030.6,029.9,000.0,039.1,032.3,027.7,0000.0,0005.30,0010.97,0004.50
2024-06-09 11:56:00,SystemResetWarning,0831.6,5.01,000.00,030.6,029.9,000.0,039.1,032.3,027.6,0000.0,0005.31,0011.09,0004.53
2024-06-09 11:57:00,SystemResetWarning,0831.7,5.01,000.00,030.6,029.9,000.0,039.1,032.3,027.7,0000.0,0005.40,0011.22,0004.58
2024-06-09 11:58:00,SystemResetWarning,0831.7,5.00,000.00,030.6,029.9,000.0,039.1,032.3,028.1,0000.0,0005.44,0011.61,0004.63
2024-06-09 11:59:00,SystemResetWarning,0831.7,4.99,000.00,030.6,029.9,000.0,039.1,032.3,028.7,0000.0,0005.52,0011.33,0004.70
